OM2WX-6 Weather Reports


Display with metric or nautical units.
time (UTC)temp
F
wind
direction
speed
MPH
gust
MPH
rain 1hr
in
rain 24hr
in
rain mn
in
humidity
%
barometer
mb
20260507125941 70 90 0.0 0.0 0.00 0.00 0.00 51 1004.4
20260507125441 70 90 0.0 0.0 0.00 0.00 0.00 51 1004.4
20260507124941 70 90 0.0 0.0 0.00 0.00 0.00 51 1004.4
20260507124441 70 90 0.0 0.0 0.00 0.00 0.00 51 1005.5
20260507123941 70 90 0.0 0.0 0.00 0.00 0.00 10 1007.5
20260507123441 0 180 0.0 0.0 0.00 0.00 0.00 1007.5
20260507122941 0 180 0.0 0.0 0.00 0.00 0.00 1004.8
20260507122441 69 180 0.0 0.0 0.00 0.00 0.00 51 1002.9
20260507121941 69 180 0.0 0.0 0.00 0.00 0.00 51 1006.0
20260507121441 69 180 0.0 0.0 0.00 0.00 0.00 51 1006.0
20260507120941 69 202 0.0 0.0 0.00 0.00 0.00 52 1008.0
20260507120441 0 202 0.0 0.0 0.00 0.00 0.00 1007.6
20260507115941 0 202 0.0 0.0 0.00 0.00 0.00 1000.2
20260507115441 69 202 0.0 0.0 0.00 0.00 0.00 53 1001.1
20260507114941 69 202 0.0 2.0 0.00 0.00 0.00 53 1005.3
20260507114442 69 202 0.0 2.0 0.00 0.00 0.00 53 1006.6
20260507113941 69 202 0.0 0.0 0.00 0.00 0.00 53 1007.9
20260507113441 0 202 0.0 0.0 0.00 0.00 0.00 1007.6
20260507112941 0 202 0.0 0.0 0.00 0.00 0.00 1004.7
20260507112441 68 202 0.0 0.0 0.00 0.00 0.00 53 1001.1
20260507111941 68 202 0.0 3.0 0.00 0.00 0.00 53 1004.4
20260507111441 68 202 0.0 0.0 0.00 0.00 0.00 10 1007.7
20260507110941 0 202 0.0 0.0 0.00 0.00 0.00 1007.9
20260507110441 0 202 0.0 0.0 0.00 0.00 0.00 1002.7
20260507105941 68 202 0.0 0.0 0.00 0.00 0.00 54 1006.2
20260507105441 68 202 0.0 0.0 0.00 0.00 0.00 54 1006.2
20260507104941 68 202 0.0 2.0 0.00 0.00 0.00 54 1006.3
20260507104441 0 202 0.0 0.0 0.00 0.00 0.00 1008.2
20260507103941 0 202 0.0 0.0 0.00 0.00 0.00 1007.9
20260507103441 67 202 0.0 0.0 0.00 0.00 0.00 54 1000.7
20260507102941 67 202 0.0 0.0 0.00 0.00 0.00 54 1003.8
20260507102441 67 202 0.0 0.0 0.00 0.00 0.00 54 1005.6
20260507101941 67 202 0.0 0.0 0.00 0.00 0.00 54 1007.3
20260507101441 0 202 0.0 0.0 0.00 0.00 0.00 1008.4
20260507100941 0 202 0.0 0.0 0.00 0.00 0.00 1006.6
20260507100442 66 202 0.0 0.0 0.00 0.00 0.00 55 1001.1
20260507095941 66 202 0.0 0.0 0.00 0.00 0.00 55 1004.9
20260507095441 66 202 0.0 1.0 0.00 0.00 0.00 55 1006.2
20260507094941 66 202 0.0 1.0 0.00 0.00 0.00 56 1007.8
20260507094441 0 202 0.0 0.0 0.00 0.00 0.00 1008.1
20260507093941 0 202 0.0 0.0 0.00 0.00 0.00 1004.5
20260507093441 66 202 0.0 0.0 0.00 0.00 0.00 55 1005.5
20260507092941 66 202 0.0 2.0 0.00 0.00 0.00 55 1006.2
20260507092441 66 202 0.0 0.0 0.00 0.00 0.00 55 1006.7
20260507091941 66 202 0.0 0.0 0.00 0.00 0.00 55 1006.3
20260507091441 0 202 0.0 0.0 0.00 0.00 0.00 1008.1
20260507090941 0 202 0.0 0.0 0.00 0.00 0.00 1007.5
20260507090441 67 202 0.0 0.0 0.00 0.00 0.00 55 1002.7
20260507085941 67 202 0.0 0.0 0.00 0.00 0.00 55 1002.7
20260507085441 67 202 0.0 6.0 0.00 0.00 0.00 55 1005.4
20260507084941 67 202 2.0 6.0 0.00 0.00 0.00 56 1006.2
20260507084441 0 180 0.0 0.0 0.00 0.00 0.00 1007.9
20260507083941 0 180 0.0 0.0 0.00 0.00 0.00 1007.3
20260507083441 67 180 0.0 0.0 0.00 0.00 0.00 56 1001.5
20260507082941 67 180 0.0 0.0 0.00 0.00 0.00 56 1005.5
20260507082441 67 180 0.0 0.0 0.00 0.00 0.00 56 1005.5
20260507081941 67 202 0.0 0.0 0.00 0.00 0.00 10 1007.4
20260507081441 0 202 0.0 0.0 0.00 0.00 0.00 1007.1
20260507080941 0 202 0.0 0.0 0.00 0.00 0.00 1000.4
20260507080441 67 202 0.0 0.0 0.00 0.00 0.00 56 1005.7
20260507075941 67 202 0.0 3.0 0.00 0.00 0.00 56 1005.7
20260507075441 0 180 0.0 0.0 0.00 0.00 0.00 1007.0
20260507074941 0 180 0.0 0.0 0.00 0.00 0.00 1006.8
20260507074441 66 180 0.0 0.0 0.00 0.00 0.00 57 1003.5
20260507073941 66 180 0.0 0.0 0.00 0.00 0.00 57 1003.5
20260507073441 66 180 0.0 0.0 0.00 0.00 0.00 57 1004.3
20260507072941 66 202 0.0 4.0 0.00 0.00 0.00 58 1005.6
20260507072441 0 202 0.0 0.0 0.00 0.00 0.00 1006.8
20260507071941 0 202 0.0 0.0 0.00 0.00 0.00 1006.4
20260507071441 66 202 0.0 0.0 0.00 0.00 0.00 60 1000.7
20260507070941 66 202 0.0 0.0 0.00 0.00 0.00 60 1005.2
20260507070441 66 202 0.0 3.0 0.00 0.00 0.00 61 1004.5
20260507065941 65 202 0.0 2.0 0.00 0.00 0.00 60 1004.5
20260507065441 65 202 0.0 6.0 0.00 0.00 0.00 61 1005.1
20260507064941 65 202 0.0 1.0 0.00 0.00 0.00 62 1005.7
20260507064441 0 202 0.0 0.0 0.00 0.00 0.00 1006.7
20260507063941 0 202 0.0 0.0 0.00 0.00 0.00 1005.5
20260507063442 64 202 0.0 0.0 0.00 0.00 0.00 63 1001.6
20260507062941 64 202 0.0 0.0 0.00 0.00 0.00 63 1004.3
20260507062441 64 202 0.0 0.0 0.00 0.00 0.00 63 1004.7
20260507061941 63 202 0.0 0.0 0.00 0.00 0.00 63 1004.0
20260507061442 63 202 0.0 0.0 0.00 0.00 0.00 63 1004.7
20260507060942 63 270 0.0 0.0 0.00 0.00 0.00 63 1005.0
20260507060442 63 202 0.0 0.0 0.00 0.00 0.00 64 1005.3
20260507055942 62 202 0.0 0.0 0.00 0.00 0.00 64 1006.5
20260507055442 62 202 0.0 0.0 0.00 0.00 0.00 64 1006.6
20260507054942 62 202 0.0 0.0 0.00 0.00 0.00 64 1006.3
20260507054442 62 202 0.0 0.0 0.00 0.00 0.00 64 1005.5
20260507053942 0 202 0.0 0.0 0.00 0.00 0.00 1006.2
20260507053442 0 202 0.0 0.0 0.00 0.00 0.00 1005.8
20260507052942 62 202 0.0 0.0 0.00 0.00 0.00 65 998.4
20260507052442 62 202 0.0 0.0 0.00 0.00 0.00 65 999.7
20260507051942 62 202 0.0 0.0 0.00 0.00 0.00 65 1004.0
20260507051442 62 202 0.0 0.0 0.00 0.00 0.00 65 1004.2
20260507050942 62 202 0.0 0.0 0.00 0.00 0.00 66 1005.7
20260507050442 0 202 0.0 0.0 0.00 0.00 0.00 1005.5
20260507045942 0 202 0.0 0.0 0.00 0.00 0.00 998.3
20260507045442 61 202 0.0 0.0 0.00 0.00 0.00 66 1003.4
20260507044942 61 202 0.0 0.0 0.00 0.00 0.00 66 1003.4
20260507044442 61 202 0.0 0.0 0.00 0.00 0.00 66 1003.5
20260507043942 61 202 0.0 0.0 0.00 0.00 0.00 66 1004.7
20260507043442 0 202 0.0 0.0 0.00 0.00 0.00 1005.4
20260507042942 0 202 0.0 0.0 0.00 0.00 0.00 1005.0
20260507042442 61 202 0.0 0.0 0.00 0.00 0.00 67 1001.2
20260507041942 61 202 0.0 0.0 0.00 0.00 0.00 67 1001.2
20260507041442 61 202 0.0 0.0 0.00 0.00 0.00 67 1003.8
20260507040942 61 202 0.0 0.0 0.00 0.00 0.00 67 1004.2
20260507040442 0 202 0.0 0.0 0.00 0.00 0.00 1005.0
20260507035942 0 202 0.0 0.0 0.00 0.00 0.00 1003.1
20260507035442 61 202 0.0 0.0 0.00 0.00 0.00 67 999.1
20260507034942 61 202 0.0 0.0 0.00 0.00 0.00 67 1002.3
20260507034442 61 202 0.0 0.0 0.00 0.00 0.00 67 1004.0
20260507033942 0 202 0.0 0.0 0.00 0.00 0.00 1005.0
20260507033442 0 202 0.0 0.0 0.00 0.00 0.00 1004.5
20260507032942 61 202 0.0 0.0 0.00 0.00 0.00 67 996.7
20260507032442 61 202 0.0 0.0 0.00 0.00 0.00 67 999.6
20260507031942 61 202 0.0 0.0 0.00 0.00 0.00 67 1002.1
20260507031442 61 202 0.0 0.0 0.00 0.00 0.00 67 1002.5
20260507030942 61 202 0.0 0.0 0.00 0.00 0.00 67 1003.0
20260507030442 61 202 0.0 0.0 0.00 0.00 0.00 67 1003.9
20260507025942 0 180 0.0 0.0 0.00 0.00 0.00 1004.5
20260507025442 0 180 0.0 0.0 0.00 0.00 0.00 1000.7
20260507024942 62 180 0.0 0.0 0.00 0.00 0.00 67 1001.2
20260507024442 62 180 0.0 0.0 0.00 0.00 0.00 67 1001.2
20260507023942 62 202 0.0 0.0 0.00 0.00 0.00 67 1002.8
20260507023442 62 202 0.0 0.0 0.00 0.00 0.00 67 1003.4
20260507022942 0 202 0.0 0.0 0.00 0.00 0.00 1004.5
20260507022442 0 202 0.0 0.0 0.00 0.00 0.00 1004.1
20260507021942 62 202 0.0 0.0 0.00 0.00 0.00 67 998.5
20260507021442 62 202 0.0 0.0 0.00 0.00 0.00 67 1001.9
20260507020942 62 202 0.0 0.0 0.00 0.00 0.00 67 1001.9
20260507020442 0 202 0.0 0.0 0.00 0.00 0.00 1004.3
20260507015942 0 202 0.0 0.0 0.00 0.00 0.00 1004.2
20260507015442 0 202 0.0 0.0 0.00 0.00 0.00 997.4
20260507014942 62 202 0.0 0.0 0.00 0.00 0.00 67 1002.2
20260507014442 62 202 0.0 0.0 0.00 0.00 0.00 67 1002.2
20260507013942 62 202 0.0 0.0 0.00 0.00 0.00 66 1002.6
20260507013442 62 202 0.0 0.0 0.00 0.00 0.00 66 1002.5
20260507012942 62 202 0.0 0.0 0.00 0.00 0.00 66 1002.3
20260507012442 62 202 0.0 0.0 0.00 0.00 0.00 66 1002.3
20260507011942 62 202 0.0 0.0 0.00 0.00 0.00 66 1003.3
20260507011442 0 202 0.0 0.0 0.00 0.00 0.00 1004.3
20260507010942 0 202 0.0 0.0 0.00 0.00 0.00 1004.0
20260507010442 63 202 0.0 0.0 0.00 0.00 0.00 65 998.6
20260507005942 63 202 0.0 0.0 0.00 0.00 0.00 65 1001.9
20260507005442 63 202 0.0 0.0 0.00 0.00 0.00 65 1001.9
20260507004942 63 202 0.0 0.0 0.00 0.00 0.00 65 1002.7
20260507004442 0 202 0.0 0.0 0.00 0.00 0.00 1003.8
20260507003942 0 202 0.0 0.0 0.00 0.00 0.00 1003.2
20260507003442 63 202 0.0 0.0 0.00 0.00 0.00 65 998.2
20260507002942 63 202 0.0 0.0 0.00 0.00 0.00 65 1001.4
20260507002442 63 202 0.0 5.0 0.00 0.00 0.00 65 1001.6
20260507001942 0 202 0.0 5.0 0.00 0.00 0.00 1003.7
20260507001442 0 202 0.0 0.0 0.00 0.00 0.00 1003.4
20260507000942 0 202 0.0 0.0 0.00 0.00 0.00 996.6
20260507000442 63 202 5.0 5.0 0.00 0.00 0.00 65 999.2
20260506235942 63 202 5.0 5.0 0.00 0.00 0.00 65 1001.3
20260506235442 63 202 0.0 2.0 0.00 0.00 0.00 65 1001.4
20260506234942 64 202 3.0 3.0 0.00 0.00 0.00 65 1003.0
20260506234442 0 202 0.0 0.0 0.00 0.00 0.00 1003.3
20260506233942 0 202 0.0 0.0 0.00 0.00 0.00 1001.9
20260506233442 64 202 0.0 0.0 0.00 0.00 0.00 64 999.3
20260506232942 64 202 0.0 0.0 0.00 0.00 0.00 64 999.3
20260506232442 64 270 0.0 6.0 0.00 0.00 0.00 64 1001.2
20260506231942 64 270 0.0 1.0 0.00 0.00 0.00 64 1000.8
20260506231442 64 202 0.0 0.0 0.00 0.00 0.00 64 1002.6
20260506230942 64 270 0.0 0.0 0.00 0.00 0.00 64 1002.7
20260506230442 64 270 0.0 0.0 0.00 0.00 0.00 64 1002.6
20260506225942 64 270 0.0 0.0 0.00 0.00 0.00 64 1001.7
20260506225442 64 270 0.0 0.0 0.00 0.00 0.00 64 1000.8
20260506224942 64 270 0.0 6.0 0.00 0.00 0.00 64 1000.5
20260506224442 64 202 6.0 6.0 0.00 0.00 0.00 63 1000.3
20260506223942 65 202 0.0 0.0 0.00 0.00 0.00 63 1001.6
20260506223442 0 270 0.0 0.0 0.00 0.00 0.00 1002.0
20260506222942 0 270 0.0 0.0 0.00 0.00 0.00 999.3
20260506222442 65 270 0.0 0.0 0.00 0.00 0.00 63 996.1
20260506221942 65 270 0.0 0.0 0.00 0.00 0.00 63 998.8
20260506221442 65 202 0.0 3.0 0.00 0.00 0.00 63 999.7
20260506220942 65 202 0.0 0.0 0.00 0.00 0.00 62 1001.5
20260506220442 0 112 0.0 0.0 0.00 0.00 0.00 1001.6
20260506215942 0 112 0.0 0.0 0.00 0.00 0.00 1000.4
20260506215442 65 112 0.0 0.0 0.00 0.00 0.00 62 996.3
20260506214942 65 112 0.0 2.0 0.00 0.00 0.00 62 1000.0
20260506214442 66 180 0.0 2.0 0.00 0.00 0.00 62 999.4
20260506213942 66 22 0.0 2.0 0.00 0.00 0.00 61 999.0
20260506213442 66 90 0.0 0.0 0.00 0.00 0.00 61 999.5
20260506212942 66 202 0.0 3.0 0.00 0.00 0.00 61 1000.3
20260506212442 0 202 0.0 0.0 0.00 0.00 0.00 1001.5
20260506211942 0 202 0.0 0.0 0.00 0.00 0.00 1001.2
20260506211442 66 202 0.0 0.0 0.00 0.00 0.00 61 995.3
20260506210942 66 202 0.0 0.0 0.00 0.00 0.00 61 996.4
20260506210442 66 202 0.0 6.0 0.00 0.00 0.00 61 998.6
20260506205942 66 270 0.0 5.0 0.00 0.00 0.00 60 999.8
20260506205442 66 270 0.0 4.0 0.00 0.00 0.00 60 999.9
20260506204942 66 270 0.0 3.0 0.00 0.00 0.00 60 1000.5
20260506204442 0 202 0.0 0.0 0.00 0.00 0.00 1001.6
20260506203942 0 202 0.0 0.0 0.00 0.00 0.00 1000.9
20260506203442 67 202 0.0 0.0 0.00 0.00 0.00 59 997.4
20260506202942 67 202 0.0 1.0 0.00 0.00 0.00 59 997.4
20260506202442 67 22 1.0 4.0 0.00 0.00 0.00 59 999.3
20260506201942 67 270 0.0 0.0 0.00 0.00 0.00 58 999.6
20260506201442 0 270 0.0 0.0 0.00 0.00 0.00 1001.1
20260506200942 0 270 0.0 0.0 0.00 0.00 0.00 1000.7
20260506200442 68 270 0.0 0.0 0.00 0.00 0.00 57 998.0
20260506195942 68 270 0.0 0.0 0.00 0.00 0.00 57 998.0
20260506195442 68 270 0.0 0.0 0.00 0.00 0.00 57 998.5
20260506194942 68 90 0.0 1.0 0.00 0.00 0.00 57 999.7
20260506194442 68 90 0.0 2.0 0.00 0.00 0.00 57 998.4
20260506193942 68 0 0.0 0.0 0.00 0.00 0.00 57 997.9
20260506193442 68 202 0.0 3.0 0.00 0.00 0.00 56 999.2
20260506192942 68 202 0.0 2.0 0.00 0.00 0.00 56 999.6
20260506192442 68 0 2.0 2.0 0.00 0.00 0.00 56 1000.4
20260506191942 0 180 0.0 0.0 0.00 0.00 0.00 1000.7
20260506191442 0 180 0.0 0.0 0.00 0.00 0.00 999.7
20260506190942 69 180 0.0 0.0 0.00 0.00 0.00 55 997.6
20260506190442 69 180 0.0 0.0 0.00 0.00 0.00 55 997.6
20260506185942 69 22 0.0 0.0 0.00 0.00 0.00 55 999.0
20260506185442 69 180 0.0 0.0 0.00 0.00 0.00 55 999.3
20260506184942 69 202 0.0 0.0 0.00 0.00 0.00 55 1000.1
20260506184442 70 270 0.0 0.0 0.00 0.00 0.00 53 1000.9
20260506183942 70 270 0.0 0.0 0.00 0.00 0.00 53 1000.9
20260506183442 70 270 0.0 0.0 0.00 0.00 0.00 53 1000.8
20260506182942 70 270 0.0 0.0 0.00 0.00 0.00 53 1000.4
20260506182442 70 270 0.0 0.0 0.00 0.00 0.00 53 999.5
20260506181942 70 270 0.0 0.0 0.00 0.00 0.00 53 998.9
20260506181442 70 22 0.0 2.0 0.00 0.00 0.00 53 998.6
20260506180943 70 0 0.0 0.0 0.00 0.00 0.00 52 998.7
20260506180443 70 180 0.0 6.0 0.00 0.00 0.00 52 998.4
20260506175943 71 270 0.0 0.0 0.00 0.00 0.00 52 998.8
20260506175443 71 180 0.0 2.0 0.00 0.00 0.00 52 998.3
20260506174943 71 270 0.0 5.0 0.00 0.00 0.00 51 998.5
20260506174443 71 270 0.0 2.0 0.00 0.00 0.00 51 998.9
20260506173943 71 22 0.0 0.0 0.00 0.00 0.00 51 999.7
20260506173443 0 270 0.0 0.0 0.00 0.00 0.00 1000.3
20260506172943 0 270 0.0 0.0 0.00 0.00 0.00 998.8
20260506172443 72 270 0.0 0.0 0.00 0.00 0.00 10 995.1
20260506171943 72 270 0.0 0.0 0.00 0.00 0.00 10 1000.2
20260506171443 0 270 0.0 0.0 0.00 0.00 0.00 1000.4
20260506170943 0 270 0.0 0.0 0.00 0.00 0.00 999.8
20260506170443 73 270 0.0 0.0 0.00 0.00 0.00 47 995.6
20260506165943 73 270 0.0 0.0 0.00 0.00 0.00 47 995.7
20260506165443 73 270 0.0 3.0 0.00 0.00 0.00 47 999.1
20260506164943 74 0 0.0 8.0 0.00 0.00 0.00 47 998.9
20260506164443 74 112 0.0 0.0 0.00 0.00 0.00 47 999.7
20260506163943 0 270 0.0 0.0 0.00 0.00 0.00 1000.3
20260506163443 0 270 0.0 0.0 0.00 0.00 0.00 999.6
20260506162943 74 270 0.0 0.0 0.00 0.00 0.00 47 996.6
20260506162443 74 270 0.0 0.0 0.00 0.00 0.00 47 1000.7
20260506161943 74 270 0.0 0.0 0.00 0.00 0.00 47 1000.7
20260506161443 0 270 0.0 0.0 0.00 0.00 0.00 1000.5
20260506160943 0 270 0.0 0.0 0.00 0.00 0.00 1000.0
20260506160443 75 270 0.0 0.0 0.00 0.00 0.00 46 995.5
20260506155943 75 270 0.0 0.0 0.00 0.00 0.00 46 998.2
20260506155443 75 270 0.0 2.0 0.00 0.00 0.00 46 999.4
20260506154943 75 202 0.0 4.0 0.00 0.00 0.00 46 999.2
20260506154443 75 292 0.0 0.0 0.00 0.00 0.00 45 998.9
20260506153943 75 112 0.0 4.0 0.00 0.00 0.00 45 999.0
20260506153443 75 180 0.0 2.0 0.00 0.00 0.00 45 999.4
20260506152943 75 112 0.0 0.0 0.00 0.00 0.00 45 999.7
20260506152443 75 0 0.0 3.0 0.00 0.00 0.00 46 999.4
20260506151943 75 22 0.0 1.0 0.00 0.00 0.00 46 1000.1
20260506151443 0 180 0.0 0.0 0.00 0.00 0.00 1001.1
20260506150943 0 180 0.0 0.0 0.00 0.00 0.00 1000.4
20260506150443 76 180 0.0 0.0 0.00 0.00 0.00 45 996.7
20260506145943 76 180 0.0 0.0 0.00 0.00 0.00 45 996.7
20260506145443 76 180 0.0 0.0 0.00 0.00 0.00 45 999.8
20260506144943 76 22 0.0 0.0 0.00 0.00 0.00 45 1001.3
20260506144443 0 112 0.0 0.0 0.00 0.00 0.00 1000.8
20260506143943 0 112 0.0 0.0 0.00 0.00 0.00 996.0
20260506143443 77 112 0.0 0.0 0.00 0.00 0.00 44 997.2
20260506142943 77 112 0.0 0.0 0.00 0.00 0.00 44 998.5
20260506142443 77 22 0.0 2.0 0.00 0.00 0.00 44 999.0
20260506141943 77 22 0.0 0.0 0.00 0.00 0.00 44 999.7
20260506141443 77 202 0.0 0.0 0.00 0.00 0.00 44 999.2
20260506140943 76 112 0.0 0.0 0.00 0.00 0.00 44 999.6
20260506140443 76 22 0.0 0.0 0.00 0.00 0.00 44 999.8
20260506135943 76 22 0.0 0.0 0.00 0.00 0.00 44 1000.6
20260506135443 0 90 0.0 0.0 0.00 0.00 0.00 1001.5
20260506134943 0 90 0.0 0.0 0.00 0.00 0.00 999.9
20260506134443 77 90 0.0 0.0 0.00 0.00 0.00 44 997.5
20260506133943 77 90 0.0 0.0 0.00 0.00 0.00 44 999.2
20260506133443 77 22 0.0 0.0 0.00 0.00 0.00 44 1000.0
20260506132943 77 22 0.0 3.0 0.00 0.00 0.00 43 1000.5
20260506132443 77 22 0.0 1.0 0.00 0.00 0.00 44 1000.4
20260506131943 77 22 0.0 0.0 0.00 0.00 0.00 44 999.7
20260506131443 77 90 0.0 0.0 0.00 0.00 0.00 45 1000.3
20260506130943 77 247 0.0 0.0 0.00 0.00 0.00 45 1000.5